Location: Unspecified
(32.5099°N, 80.0190°W)
Time: 08:29:56
(UTC-04:00)

CZ-3 Stage 3 - Visible Passes

Search period start: 05 August 2015 00:00
Search period end: 15 August 2015 00:00
Orbit: 436 x 34789 km, 31.0° (Epoch: 04 August)

Date Brightness Start Highest point End Pass type
(mag) Time Alt. Az. Time Alt. Az. Time Alt. Az.
05 Aug 6.0 01:44:00 43° SE 01:45:40 44° SE 10:48:07 10° SE visible
07 Aug 6.6 05:06:06 17° WSW 05:44:09 87° S 14:28:35 10° S visible
08 Aug 6.0 01:38:56 46° SE 01:39:59 46° SE 10:42:52 10° SE visible
10 Aug 6.6 05:01:02 17° WSW 05:40:03 88° S 14:22:34 10° S visible
11 Aug 6.0 01:33:52 48° SE 01:34:20 48° SE 10:37:35 10° SE visible
13 Aug 6.7 04:55:57 18° W 05:36:01 88° S 14:16:29 10° S visible
14 Aug 6.0 01:28:47 51° SE 01:28:47 51° SE 10:32:15 10° SE visible
